QPF
0.00 0.00 0.00 0.00 0.00 0.00 0.00 0.00 0.00 0.00 0.00 0.00 0.00 0.00 0.00 0.00 0.00 0.00 0.00 0.00 0.00 0.00 0.00 0.00 0.00 0.00 0.00 0.00 0.00 0.00 0.00 0.00 0.00 0.00 0.00 0.00 0.00 0.00 0.00 0.00 0.00 0.00 0.00 0.00 0.00
0.00 0.00 0.00 0.00 0.00 0.00 0.00 0.00 0.00 0.00 0.00 0.00 0.00 0.00 0.00 0.00 0.00 0.00 0.00 0.00 0.00 0.00 0.00 0.00 0.00 0.00 0.00 0.00 0.00 0.00 0.00 0.00 0.00 0.00 0.00 0.00 0.00 0.00 0.00 0.00 0.00 0.00 0.00 0.00 0.00
0.00 0.00 0.00 0.00 0.00 0.00 0.00 0.00 0.00 0.00 0.00 0.00 0.00 0.00 0.00 0.00 0.00 0.00 0.00 0.00 0.00 0.00 0.00 0.00 0.00 0.00 0.00 0.00 0.00 0.00 0.00 0.00 0.00 0.00 0.00 0.00 0.00 0.00 0.00 0.00 0.00 0.00 0.00 0.00 0.00
0.00 0.00 0.00 0.00 0.00 0.00 0.00 0.00 0.00 0.00 0.00 0.00 0.00 0.00 0.00 0.00 0.00 0.00 0.00 0.00 0.00 0.00 0.00 0.00 0.00 0.00 0.00 0.00 0.00 0.00 0.00 0.00 0.00 0.00 0.00 0.00 0.00 0.00 0.00 0.00 0.00 0.00 0.00 0.00 0.00
0.00 0.00 0.00 0.00 0.00 0.00 0.00 0.00 0.00 0.00 0.00 0.00 0.00 0.00 0.00 0.00 0.00 0.00 0.00 0.00 0.00 0.00 0.00 0.00 0.00 0.00 0.00 0.00 0.00 0.00 0.00 0.00 0.00 0.00 0.00 0.00 0.00 0.00 0.00 0.00 0.00 0.00 0.00 0.00 0.00
0.00 0.00 0.00 0.00 0.00 0.00 0.00 0.00 0.00 0.00 0.00 0.00 0.00 0.00 0.00 0.00 0.00 0.00 0.00 0.00 0.00 0.00 0.00 0.00 0.00 0.00 0.00 0.00 0.00 0.00 0.00 0.00 0.00 0.00 0.00 0.00 0.00 0.00 0.00 0.00 0.00 0.00 0.00 0.00 0.00
0.00 0.00 0.00 0.00 0.00 0.00 0.00 0.00 0.00 0.00 0.00 0.00 0.00 0.00 0.00 0.00 0.00 0.00 0.00 0.00 0.00 0.00 0.00 0.00 0.00 0.00 0.00 0.00 0.00 0.00 0.00 0.00 0.00 0.00 0.00 0.00 0.00 0.00 0.00 0.00 0.00 0.00 0.00 0.00 0.00
0.00 0.00 0.00 0.00 0.00 0.00 0.00 0.00 0.00 0.00 0.00 0.00 0.00 0.00 0.00 0.00 0.00 0.00 0.00 0.00 0.00 0.00 0.00 0.00 0.00 0.00 0.00 0.00 0.00 0.00 0.00 0.00 0.00 0.00 0.00 0.00 0.00 0.00 0.00 0.00 0.00 0.00 0.00 0.00 0.00
0.00 0.00 0.00 0.00 0.00 0.00 0.00 0.00 0.00 0.00 0.00 0.00 0.00 0.00 0.00 0.00 0.00 0.00 0.00 0.00 0.00 0.00 0.00 0.00 0.00 0.00 0.00 0.00 0.00 0.00 0.00 0.00 0.00 0.00 0.00 0.00 0.00 0.00 0.00 0.00 0.00 0.00 0.00 0.00 0.00
0.00 0.00 0.00 0.00 0.00 0.00 0.00 0.00 0.00 0.00 0.00 0.00 0.00 0.00 0.00 0.00 0.00 0.00 0.00 0.00 0.00 0.00 0.00 0.00 0.00 0.00 0.00 0.00 0.00 0.00 0.00 0.00 0.00 0.00 0.00 0.00 0.00 0.00 0.00 0.00 0.00 0.00 0.00 0.00 0.00
0.00 0.00 0.00 0.00 0.00 0.00 0.00 0.00 0.00 0.00 0.00 0.00 0.00 0.00 0.00 0.00 0.00 0.00 0.00 0.00 0.00 0.00 0.00 0.00 0.00 0.00 0.00 0.00 0.00 0.00 0.00 0.00 0.00 0.00 0.00 0.00 0.00 0.00 0.00 0.00 0.00 0.00 0.00 0.00 0.00
0.00 0.00 0.00 0.00 0.00 0.00 0.00 0.00 0.00 0.00 0.00 0.00 0.00 0.00 0.00 0.00 0.00 0.00 0.00 0.00 0.00 0.00 0.00 0.00 0.00 0.00 0.00 0.00 0.00 0.00 0.00 0.00 0.00 0.00 0.00 0.00 0.00 0.00 0.00 0.00 0.00 0.00 0.00 0.00 0.00
0.00 0.00 0.00 0.00 0.00 0.00 0.00 0.00 0.00 0.00 0.00 0.00 0.00 0.00 0.00 0.00 0.00 0.00 0.00 0.00 0.00 0.00 0.00 0.00 0.00 0.00 0.00 0.00 0.00 0.00 0.00 0.00 0.00 0.00 0.00 0.00 0.00 0.00 0.00 0.00 0.00 0.00 0.00 0.00 0.00
0.00 0.00 0.00 0.00 0.00 0.00 0.00 0.00 0.00 0.00 0.00 0.00 0.00 0.00 0.00 0.00 0.00 0.00 0.00 0.00 0.00 0.00 0.00 0.00 0.00 0.00 0.00 0.00 0.00 0.00 0.00 0.00 0.00 0.00 0.00 0.00 0.00 0.00 0.00 0.00 0.00 0.00 0.00 0.00 0.00
0.00 0.00 0.00 0.00 0.00 0.00 0.00 0.00 0.00 0.01 0.00 0.00 0.00 0.00 0.00 0.00 0.00 0.00 0.00 0.00 0.00 0.00 0.00 0.00 0.00 0.00 0.00 0.00 0.00 0.00 0.00 0.00 0.00 0.00 0.00 0.00 0.00 0.00 0.00 0.00 0.00 0.00 0.00 0.00 0.00
0.00 0.00 0.00 0.00 0.00 0.00 0.00 0.00 0.04 0.04 0.01 0.00 0.00 0.00 0.00 0.00 0.00 0.00 0.00 0.00 0.00 0.00 0.00 0.00 0.00 0.00 0.00 0.00 0.00 0.00 0.00 0.00 0.00 0.00 0.00 0.00 0.00 0.00 0.00 0.00 0.00 0.00 0.00 0.00 0.00
0.00 0.00 0.00 0.00 0.00 0.00 0.00 0.01 0.06 0.04 0.00 0.00 0.01 0.00 0.00 0.00 0.00 0.00 0.00 0.00 0.00 0.00 0.00 0.00 0.00 0.00 0.00 0.00 0.00 0.00 0.00 0.00 0.00 0.00 0.00 0.00 0.00 0.00 0.00 0.00 0.00 0.00 0.00 0.00 0.00
0.00 0.00 0.00 0.00 0.00 0.00 0.00 0.05 0.06 0.01 0.00 0.00 0.00 0.00 0.00 0.00 0.00 0.00 0.00 0.00 0.00 0.01 0.00 0.00 0.00 0.00 0.00 0.00 0.00 0.00 0.00 0.00 0.00 0.00 0.00 0.00 0.00 0.00 0.00 0.00 0.00 0.00 0.00 0.00 0.00
0.00 0.00 0.00 0.00 0.00 0.01 0.04 0.09 0.06 0.01 0.00 0.00 0.01 0.01 0.00 0.00 0.00 0.00 0.00 0.00 0.01 0.01 0.02 0.00 0.00 0.00 0.00 0.00 0.00 0.00 0.00 0.00 0.00 0.00 0.00 0.00 0.00 0.00 0.00 0.00 0.00 0.00 0.00 0.00 0.00
0.00 0.00 0.00 0.00 0.00 0.01 0.06 0.04 0.00 0.00 0.00 0.01 0.06 0.04 0.02 0.00 0.00 0.00 0.01 0.01 0.00 0.00 0.00 0.00 0.02 0.00 0.00 0.00 0.00 0.00 0.00 0.00 0.00 0.00 0.00 0.00 0.00 0.00 0.00 0.00 0.00 0.00 0.00 0.00 0.00
0.00 0.00 0.00 0.00 0.00 0.02 0.05 0.03 0.00 0.00 0.01 0.04 0.05 0.04 0.04 0.03 0.00 0.01 0.02 0.03 0.00 0.00 0.00 0.00 0.03 0.00 0.00 0.00 0.00 0.00 0.00 0.00 0.00 0.00 0.00 0.00 0.00 0.00 0.00 0.00 0.00 0.00 0.00 0.00 0.00
0.00 0.00 0.00 0.00 0.04 0.03 0.02 0.00 0.00 0.00 0.00 0.01 0.04 0.06 0.06 0.05 0.02 0.03 0.03 0.04 0.00 0.00 0.00 0.01 0.03 0.01 0.00 0.00 0.00 0.00 0.00 0.00 0.00 0.00 0.00 0.00 0.00 0.00 0.00 0.00 0.00 0.00 0.00 0.00 0.00
0.00 0.00 0.00 0.00 0.01 0.01 0.00 0.00 0.00 0.00 0.00 0.01 0.03 0.06 0.03 0.03 0.03 0.01 0.03 0.03 0.00 0.01 0.02 0.02 0.03 0.02 0.02 0.00 0.00 0.00 0.00 0.00 0.00 0.00 0.00 0.00 0.00 0.00 0.00 0.00 0.00 0.00 0.00 0.00 0.00
0.00 0.00 0.00 0.00 0.01 0.01 0.00 0.00 0.00 0.00 0.01 0.01 0.01 0.05 0.05 0.05 0.02 0.03 0.05 0.02 0.00 0.00 0.01 0.02 0.01 0.02 0.03 0.00 0.00 0.00 0.00 0.00 0.00 0.00 0.00 0.00 0.00 0.00 0.00 0.00 0.00 0.00 0.00 0.00 0.00
0.00 0.00 0.00 0.00 0.00 0.00 0.00 0.01 0.01 0.04 0.02 0.02 0.03 0.06 0.06 0.04 0.02 0.05 0.03 0.02 0.00 0.00 0.01 0.04 0.00 0.01 0.00 0.00 0.00 0.00 0.00 0.00 0.00 0.00 0.00 0.00 0.00 0.00 0.00 0.00 0.00 0.00 0.00 0.00 0.00
0.00 0.00 0.00 0.00 0.00 0.00 0.01 0.02 0.02 0.04 0.03 0.03 0.04 0.02 0.02 0.03 0.02 0.02 0.01 0.02 0.02 0.01 0.02 0.03 0.01 0.00 0.00 0.00 0.00 0.00 0.00 0.00 0.00 0.00 0.00 0.00 0.00 0.00 0.00 0.00 0.00 0.00 0.00 0.00 0.00
0.00 0.00 0.02 0.00 0.00 0.00 0.00 0.00 0.00 0.02 0.02 0.04 0.02 0.01 0.02 0.02 0.00 0.00 0.00 0.00 0.00 0.00 0.00 0.02 0.02 0.02 0.00 0.00 0.00 0.00 0.00 0.00 0.00 0.00 0.00 0.00 0.00 0.00 0.00 0.00 0.00 0.00 0.00 0.00 0.00
MSLP
1021.04 1020.78 1020.56 1020.23 1020.03 1019.98 1019.57 1019.10 1018.62 1018.37 1017.63 1017.50 1017.46 1017.17 1016.45 1015.81 1014.94 1013.71 1011.78 1009.69 1009.56 1010.40 1010.99 1009.94 1009.52 1009.00 1008.95 1008.05 1007.46 1006.53 1005.27 1003.20 1002.07 1001.14 1000.61 1000.25 1000.13 1000.12 1000.59 1001.28 1001.07 1000.98 1001.09 1001.24 1001.47
1021.14 1020.88 1020.59 1020.30 1020.01 1019.54 1019.25 1018.91 1018.57 1018.35 1017.70 1017.69 1017.26 1016.56 1016.11 1015.57 1014.26 1011.50 1009.34 1009.44 1009.69 1010.17 1010.18 1008.85 1008.42 1008.29 1007.78 1007.11 1006.56 1005.80 1004.29 1002.88 1002.03 1000.96 1000.53 1000.32 1000.06 1000.09 1000.30 1000.49 1000.90 1000.82 1000.85 1000.81 1000.80
1021.15 1020.63 1020.20 1019.84 1019.56 1019.35 1019.03 1018.73 1018.37 1018.14 1017.61 1017.52 1016.96 1016.79 1016.32 1015.45 1012.51 1008.68 1009.20 1009.05 1009.77 1010.15 1009.46 1008.12 1007.60 1007.15 1006.55 1005.92 1005.22 1004.57 1003.05 1002.72 1001.83 1000.95 1000.54 1000.20 1000.28 1000.24 1000.31 1000.21 1000.45 1000.29 1000.46 1000.89 1001.14
1021.30 1020.83 1020.40 1019.93 1019.47 1019.09 1018.86 1018.59 1018.44 1018.32 1017.75 1017.59 1017.09 1016.83 1016.27 1014.90 1010.39 1008.65 1009.59 1009.65 1010.00 1009.93 1009.65 1008.16 1007.24 1006.12 1005.17 1004.41 1004.06 1003.15 1002.47 1002.41 1001.71 1001.19 1000.73 1000.10 999.99 999.95 999.99 1000.04 1000.37 1000.24 1000.59 1000.84 1000.83
1021.43 1021.06 1020.67 1020.23 1019.71 1019.19 1018.73 1018.39 1018.17 1017.83 1017.53 1017.24 1017.01 1016.73 1015.51 1012.56 1009.26 1007.84 1009.02 1008.96 1008.82 1008.35 1008.29 1007.43 1006.22 1005.27 1003.46 1003.38 1003.26 1001.64 1001.63 1001.67 1001.19 1001.10 1000.69 1000.37 999.56 999.56 999.34 999.86 1000.07 999.99 1000.23 1000.47 1000.15
1021.52 1021.11 1020.67 1020.17 1019.64 1019.14 1018.65 1018.12 1017.56 1017.09 1016.91 1016.85 1016.68 1016.86 1015.44 1011.62 1008.83 1008.56 1008.60 1008.54 1008.28 1007.54 1006.66 1006.54 1004.89 1004.12 1003.11 1002.44 1002.07 1001.83 1001.37 1000.85 1000.69 1000.35 1000.18 999.84 999.16 999.38 999.34 999.93 999.59 999.56 999.63 999.76 999.39
1021.58 1021.16 1020.70 1020.16 1019.58 1018.99 1018.39 1017.81 1017.27 1016.75 1016.36 1016.31 1016.55 1016.10 1013.55 1010.40 1009.18 1008.77 1008.64 1008.20 1007.80 1007.37 1006.61 1005.48 1005.03 1004.07 1002.84 1001.81 1001.90 1001.54 1000.91 1000.60 999.97 999.97 999.54 999.79 998.35 998.44 999.08 999.17 998.94 998.80 998.79 998.91 998.64
1021.39 1020.87 1020.38 1019.86 1019.32 1018.73 1018.15 1017.50 1016.86 1016.34 1015.93 1015.78 1015.56 1014.81 1011.92 1009.74 1008.90 1008.57 1008.29 1007.68 1007.58 1007.49 1007.12 1006.47 1004.99 1004.01 1003.03 1002.74 1001.74 1001.28 1000.95 999.40 999.32 999.44 999.41 999.98 996.15 998.52 998.86 998.50 998.07 997.65 997.72 997.53 998.05
1021.32 1020.85 1020.37 1019.81 1019.16 1018.43 1017.63 1016.46 1015.72 1015.30 1014.99 1014.93 1014.59 1013.50 1010.04 1008.44 1008.69 1008.01 1007.97 1007.36 1006.96 1006.59 1006.64 1006.82 1005.98 1004.33 1003.81 1002.69 1001.61 1000.43 998.95 998.23 998.66 998.75 998.56 998.56 995.91 997.60 998.25 998.26 997.79 997.65 997.00 997.39 997.65
1021.08 1020.59 1020.04 1019.40 1018.77 1018.01 1017.15 1015.51 1014.30 1014.68 1014.20 1013.27 1012.55 1012.04 1008.98 1007.63 1006.86 1007.34 1007.02 1006.91 1006.60 1006.18 1005.74 1006.05 1005.61 1004.33 1003.05 1001.48 998.70 998.72 998.28 998.61 997.69 997.96 997.71 997.23 995.84 996.59 996.90 997.21 997.21 996.49 996.16 996.51 996.86
1020.79 1020.30 1019.76 1019.15 1018.36 1017.53 1016.39 1013.16 1012.96 1012.46 1011.60 1010.39 1009.47 1008.85 1007.16 1006.79 1006.92 1006.73 1006.71 1006.43 1006.43 1005.84 1004.36 1004.50 1004.48 1001.40 998.49 999.30 998.95 998.92 998.37 997.35 996.95 996.94 997.08 996.37 995.81 995.43 996.38 996.67 996.22 995.76 995.47 995.69 996.27
1020.70 1020.02 1019.32 1018.67 1017.88 1017.12 1016.21 1013.60 1013.05 1013.38 1011.58 1009.97 1008.64 1007.49 1007.14 1006.95 1006.34 1006.27 1006.65 1006.17 1005.48 1004.61 1004.57 1003.54 1001.12 997.33 1000.70 999.61 999.44 998.98 998.13 996.81 996.83 996.40 996.34 995.71 995.04 994.95 995.22 995.44 995.43 995.35 994.79 994.78 995.36
1020.51 1019.88 1019.21 1018.54 1017.60 1016.37 1014.58 1013.63 1013.49 1012.95 1011.92 1008.72 1006.53 1005.33 1005.28 1005.75 1005.19 1005.19 1005.38 1005.26 1004.62 1003.57 1002.90 1001.49 997.32 1000.95 999.38 998.83 998.34 997.59 997.34 997.23 996.62 996.73 996.19 995.88 994.79 994.46 994.83 995.06 995.11 994.82 994.60 994.60 994.49
1020.32 1019.75 1019.08 1018.41 1017.14 1014.95 1013.62 1013.88 1013.35 1013.08 1011.17 1005.62 1005.04 1004.66 1005.07 1004.96 1004.48 1004.49 1004.09 1004.12 1003.73 1002.85 1001.95 1000.47 999.59 998.66 998.53 997.48 997.19 996.23 996.97 997.24 997.11 996.91 995.73 996.23 993.44 993.70 993.83 993.55 993.70 993.65 993.38 993.12 993.33
1020.00 1019.30 1018.68 1018.52 1017.16 1014.98 1014.56 1013.90 1013.59 1013.71 1009.90 1005.12 1004.55 1004.75 1004.26 1004.13 1003.70 1003.16 1003.27 1003.69 1003.14 1002.18 1002.32 998.42 998.78 998.07 997.08 995.12 997.11 994.36 996.76 996.52 996.82 996.85 996.65 995.63 994.60 993.05 993.26 992.57 992.60 992.42 992.41 992.32 992.46
1019.75 1019.03 1018.33 1016.02 1016.25 1015.42 1014.24 1014.08 1014.01 1013.32 1008.22 1005.33 1004.87 1005.02 1003.85 1003.34 1003.54 1003.39 1003.63 1003.24 1003.11 1002.53 1001.11 999.26 998.70 997.27 996.35 996.51 995.90 996.39 996.24 996.15 996.26 996.40 995.38 994.74 994.53 991.90 991.80 991.62 991.10 991.07 991.08 991.23 991.39
1019.32 1018.76 1018.20 1016.60 1015.49 1015.37 1014.94 1014.12 1013.56 1010.77 1008.34 1007.43 1007.13 1006.46 1006.26 1004.00 1003.13 1003.02 1003.16 1002.82 1002.39 1002.01 1001.12 999.75 998.36 997.04 996.05 995.68 995.57 995.19 995.38 995.16 995.32 994.73 992.39 993.82 993.04 990.84 990.88 990.60 990.31 990.13 990.53 990.66 991.02
1018.95 1018.29 1017.39 1016.57 1016.11 1015.77 1015.04 1014.20 1011.96 1009.61 1008.54 1007.70 1007.01 1006.11 1005.20 1004.47 1003.40 1002.81 1003.00 1002.91 1002.47 1002.30 1001.65 999.42 998.10 996.83 994.99 994.00 993.63 993.84 993.80 992.86 992.24 992.16 992.23 992.32 990.86 990.00 989.81 989.88 989.68 989.89 990.30 990.81 992.11
1018.13 1016.38 1016.24 1015.89 1015.88 1015.98 1015.57 1013.21 1010.46 1009.93 1009.50 1008.88 1008.11 1007.21 1005.44 1004.10 1003.61 1003.31 1003.19 1003.23 1003.89 1004.90 1004.65 1000.55 996.90 996.09 995.26 994.42 993.96 992.57 992.50 991.58 992.45 991.03 990.54 989.35 989.22 989.61 989.19 989.12 989.29 989.23 990.13 990.91 992.38
1017.77 1015.53 1015.31 1015.69 1015.99 1015.33 1014.46 1012.48 1010.31 1009.92 1009.86 1009.40 1008.45 1008.17 1006.46 1004.86 1004.72 1004.07 1003.78 1005.21 1005.42 1005.53 1005.80 1002.72 998.47 995.52 994.10 994.59 993.26 991.62 991.74 992.76 991.96 990.70 989.30 988.89 987.94 987.93 987.98 987.98 988.76 989.00 989.93 991.02 992.65
1017.53 1015.03 1015.21 1015.45 1015.48 1014.59 1013.72 1011.72 1010.70 1010.50 1010.01 1009.88 1009.10 1008.23 1007.15 1006.44 1005.57 1004.77 1004.54 1005.61 1006.34 1005.56 1005.11 1003.68 1001.15 996.24 994.41 992.10 991.76 991.15 990.41 991.07 991.27 990.16 989.10 988.53 987.65 987.57 987.65 987.94 988.38 988.76 989.76 991.27 992.62
1016.11 1013.83 1014.81 1015.02 1015.32 1014.50 1013.30 1012.40 1011.90 1010.29 1009.60 1009.08 1009.26 1008.89 1007.91 1007.20 1006.42 1005.23 1005.26 1005.62 1006.32 1005.84 1004.82 1002.94 1001.66 997.32 993.61 992.16 991.86 990.93 990.11 990.53 989.59 989.29 989.00 987.92 987.81 988.15 988.36 987.78 988.20 988.52 989.79 991.30 992.44
1015.85 1014.12 1014.40 1014.81 1014.68 1014.36 1013.49 1012.37 1010.91 1010.39 1009.64 1009.13 1008.86 1008.88 1008.16 1007.41 1006.52 1005.05 1005.39 1006.86 1007.53 1006.97 1006.02 1004.44 1001.58 997.91 995.55 993.12 991.28 989.99 989.69 989.66 990.32 989.42 988.78 987.82 987.57 988.50 988.25 988.34 988.69 989.04 990.44 991.57 992.45
1016.10 1013.61 1013.08 1013.78 1014.69 1014.80 1014.04 1012.60 1011.60 1011.27 1010.87 1009.81 1009.28 1008.74 1008.56 1007.23 1006.28 1005.98 1005.84 1007.11 1007.24 1007.06 1006.76 1006.18 1002.78 998.53 997.05 994.00 991.49 989.86 989.02 988.79 989.11 988.77 988.25 987.98 987.87 988.22 988.19 988.62 989.16 989.89 990.88 991.75 992.67
1016.17 1014.88 1015.80 1014.53 1014.64 1014.98 1014.78 1013.26 1012.25 1011.80 1011.58 1010.29 1008.96 1008.22 1007.99 1006.99 1005.97 1005.76 1006.41 1005.92 1006.85 1006.42 1006.31 1005.53 1002.19 999.39 998.17 996.71 993.25 989.93 988.48 987.83 988.15 988.33 987.61 988.05 987.93 987.97 988.26 989.12 989.83 990.49 991.24 992.02 992.63
1017.69 1017.24 1016.45 1015.90 1015.34 1014.90 1013.85 1013.02 1012.03 1011.79 1011.84 1010.37 1009.55 1008.64 1007.68 1006.88 1006.08 1005.65 1005.81 1005.39 1005.79 1005.67 1005.53 1004.55 1002.14 1000.41 1000.04 998.29 994.44 989.50 988.78 988.10 988.13 988.76 988.36 987.73 988.33 988.25 988.90 989.59 990.13 990.68 991.33 991.96 992.50
1018.79 1018.55 1018.26 1016.30 1014.52 1014.49 1013.75 1013.28 1012.91 1012.22 1011.25 1010.76 1009.74 1008.65 1007.39 1006.59 1006.21 1005.64 1005.11 1004.74 1004.51 1004.04 1004.08 1003.85 1002.22 1001.57 999.98 998.00 994.37 990.35 988.48 987.94 988.34 989.01 988.85 988.63 988.99 988.96 989.54 990.42 990.61 991.08 991.56 991.76 992.25
Thickness
5623 5624 5626 5630 5633 5634 5638 5644 5650 5652 5660 5663 5665 5669 5677 5686 5696 5707 5720 5743 5745 5742 5739 5748 5750 5754 5754 5754 5764 5771 5744 5750 5771 5782 5790 5815 5807 5824 5818 5800 5810 5816 5810 5815 5820
5617 5618 5620 5621 5623 5628 5631 5635 5639 5641 5649 5649 5655 5663 5669 5677 5691 5710 5739 5740 5739 5735 5734 5740 5739 5744 5738 5747 5754 5748 5743 5756 5788 5798 5793 5805 5807 5809 5802 5797 5795 5803 5818 5821 5818
5611 5614 5617 5620 5622 5623 5625 5628 5632 5634 5640 5641 5648 5650 5657 5666 5691 5723 5728 5733 5729 5725 5731 5741 5745 5740 5733 5748 5750 5752 5746 5770 5781 5798 5803 5797 5794 5806 5791 5782 5796 5795 5805 5806 5804
5604 5606 5608 5610 5613 5616 5617 5620 5622 5622 5628 5630 5637 5640 5647 5660 5683 5711 5710 5717 5717 5719 5716 5725 5729 5727 5729 5734 5756 5743 5763 5767 5778 5788 5787 5786 5799 5787 5791 5791 5803 5807 5806 5799 5796
5595 5597 5598 5600 5603 5605 5607 5609 5611 5614 5618 5621 5624 5629 5644 5665 5686 5707 5702 5709 5714 5720 5714 5713 5719 5726 5728 5741 5748 5753 5761 5767 5776 5777 5779 5785 5781 5781 5785 5799 5805 5806 5801 5792 5796
5585 5587 5589 5591 5594 5596 5599 5602 5606 5610 5611 5611 5614 5614 5627 5649 5687 5691 5692 5696 5702 5708 5714 5713 5722 5736 5736 5738 5739 5757 5757 5762 5769 5769 5773 5768 5773 5778 5782 5789 5795 5794 5794 5792 5796
5575 5576 5577 5579 5582 5585 5588 5592 5596 5600 5602 5602 5600 5604 5626 5655 5671 5674 5679 5683 5692 5697 5700 5718 5722 5719 5736 5731 5750 5747 5734 5746 5755 5763 5761 5769 5753 5762 5784 5786 5784 5787 5792 5791 5793
5567 5568 5568 5569 5571 5573 5576 5579 5583 5587 5590 5592 5594 5601 5622 5650 5656 5662 5668 5673 5679 5686 5690 5700 5712 5712 5716 5729 5729 5721 5727 5719 5753 5759 5759 5753 5745 5765 5781 5778 5776 5786 5790 5790 5790
5557 5557 5557 5558 5559 5561 5565 5572 5577 5580 5582 5582 5587 5594 5620 5645 5639 5651 5653 5658 5666 5675 5681 5682 5688 5696 5699 5696 5698 5717 5710 5729 5734 5757 5755 5750 5751 5767 5778 5768 5767 5774 5784 5783 5784
5547 5546 5545 5546 5546 5548 5551 5562 5569 5565 5571 5576 5582 5585 5611 5621 5637 5638 5645 5649 5652 5657 5665 5664 5665 5669 5684 5694 5694 5712 5717 5718 5727 5750 5750 5744 5752 5764 5772 5766 5764 5776 5781 5780 5781
5536 5534 5532 5530 5531 5533 5537 5559 5564 5565 5571 5575 5585 5590 5606 5614 5620 5622 5630 5632 5635 5640 5646 5656 5641 5670 5716 5716 5727 5722 5719 5723 5742 5759 5742 5743 5749 5764 5761 5760 5764 5772 5777 5776 5777
5523 5520 5518 5516 5515 5515 5515 5530 5530 5524 5541 5553 5567 5579 5587 5587 5592 5605 5609 5609 5618 5622 5631 5635 5653 5725 5699 5713 5703 5707 5708 5722 5739 5753 5747 5745 5744 5757 5763 5757 5763 5766 5776 5775 5773
5509 5505 5500 5496 5495 5496 5503 5502 5499 5499 5506 5541 5556 5571 5574 5575 5580 5588 5593 5598 5603 5614 5621 5629 5702 5680 5693 5694 5695 5707 5705 5714 5722 5734 5742 5735 5729 5745 5755 5756 5757 5766 5769 5765 5772
5494 5487 5480 5473 5478 5486 5488 5482 5481 5479 5488 5539 5536 5549 5551 5555 5559 5578 5586 5589 5592 5599 5614 5630 5675 5677 5676 5686 5703 5699 5720 5717 5713 5707 5701 5733 5712 5736 5748 5753 5756 5758 5765 5773 5777
5481 5471 5464 5456 5462 5471 5465 5465 5466 5462 5495 5534 5530 5536 5542 5544 5549 5561 5574 5570 5571 5589 5589 5648 5647 5654 5663 5702 5696 5720 5719 5715 5711 5700 5703 5713 5704 5730 5748 5744 5750 5758 5764 5773 5780
5464 5458 5454 5466 5459 5457 5459 5454 5452 5455 5496 5528 5530 5520 5532 5542 5540 5548 5546 5558 5565 5566 5587 5627 5645 5656 5672 5685 5698 5710 5706 5709 5709 5702 5684 5711 5701 5726 5745 5746 5759 5767 5772 5778 5784
5457 5453 5451 5454 5458 5451 5449 5451 5445 5475 5502 5497 5492 5500 5497 5523 5537 5540 5536 5540 5546 5548 5560 5599 5610 5640 5666 5664 5688 5697 5690 5673 5669 5676 5697 5720 5710 5737 5759 5762 5765 5766 5770 5778 5782
5457 5456 5456 5452 5447 5442 5447 5448 5463 5491 5493 5500 5496 5503 5506 5518 5530 5540 5533 5532 5551 5553 5552 5577 5581 5618 5665 5672 5679 5684 5691 5687 5670 5688 5702 5727 5710 5741 5770 5771 5772 5775 5774 5775 5770
5463 5470 5462 5455 5444 5439 5437 5457 5480 5481 5482 5478 5482 5481 5499 5521 5525 5527 5530 5530 5524 5514 5508 5559 5593 5632 5641 5660 5668 5682 5680 5731 5708 5740 5726 5750 5750 5758 5770 5768 5771 5775 5773 5771 5765
5467 5476 5468 5455 5445 5446 5449 5462 5482 5482 5475 5474 5473 5475 5486 5506 5506 5515 5522 5500 5502 5510 5506 5534 5568 5618 5644 5649 5664 5687 5717 5678 5703 5688 5703 5735 5750 5745 5760 5768 5768 5772 5769 5769 5762
5470 5478 5469 5458 5452 5454 5450 5471 5476 5473 5472 5463 5467 5474 5484 5485 5494 5504 5509 5499 5491 5505 5511 5527 5533 5594 5631 5640 5652 5672 5686 5694 5711 5722 5712 5713 5740 5771 5768 5771 5768 5775 5773 5765 5760
5482 5486 5472 5465 5450 5454 5461 5465 5460 5471 5475 5473 5467 5467 5475 5479 5483 5498 5498 5498 5494 5500 5509 5535 5536 5576 5626 5658 5668 5681 5690 5694 5696 5701 5728 5743 5738 5767 5766 5778 5778 5781 5774 5767 5764
5486 5489 5480 5467 5454 5452 5461 5464 5472 5468 5471 5472 5469 5468 5475 5477 5480 5503 5501 5483 5475 5482 5492 5513 5544 5574 5590 5631 5661 5671 5691 5704 5705 5725 5714 5728 5736 5762 5768 5770 5775 5772 5766 5762 5761
5484 5489 5486 5473 5460 5449 5449 5459 5461 5460 5457 5465 5465 5468 5466 5476 5488 5484 5493 5478 5478 5481 5484 5485 5529 5573 5569 5625 5663 5665 5688 5706 5705 5700 5718 5730 5736 5746 5757 5758 5763 5763 5762 5760 5757
5487 5485 5466 5470 5461 5448 5440 5452 5452 5443 5448 5459 5468 5472 5469 5475 5487 5486 5479 5492 5478 5485 5487 5490 5537 5570 5566 5580 5620 5677 5692 5707 5700 5716 5722 5730 5736 5748 5754 5750 5755 5758 5757 5754 5752
5473 5467 5465 5461 5457 5451 5457 5456 5460 5455 5442 5456 5458 5466 5473 5473 5482 5481 5480 5490 5484 5489 5489 5508 5536 5557 5547 5566 5606 5670 5685 5701 5709 5708 5723 5741 5730 5760 5757 5757 5755 5755 5755 5751 5751
5464 5456 5443 5458 5469 5455 5455 5453 5446 5448 5452 5450 5455 5462 5469 5475 5477 5482 5489 5496 5501 5506 5504 5508 5535 5533 5544 5567 5611 5646 5678 5696 5703 5710 5719 5714 5730 5750 5742 5739 5748 5745 5751 5754 5754